Eureka, NV

1:21 PM PDT on May 27, 2018 (GMT -0700)
Eureka

Weather History for KP68 - September, 2012

Change the Weather History Date:

Thursday, September 6, 2012

  Actual Average Record
Temperature  
Mean Temperature 67 °F 62 °F  
Max Temperature 83 °F 82 °F 92 °F (2017)
Min Temperature 50 °F 42 °F 24 °F (2010)
Degree Days  
Heating Degree Days 0 4  
Month to date heating degree days 2 21  
Since 1 July heating degree days 2 68  
Cooling Degree Days 2 1  
Month to date cooling degree days 4 6  
Year to date cooling degree days 512 283  
Growing Degree Days 16 (Base 50)    
Moisture  
Dew Point 36 °F    
Average Humidity 38    
Maximum Humidity 59    
Minimum Humidity 16    
Precipitation  
Precipitation 0.00 in 0.02 in 0.87 in (1967)
Month to date precipitation 0.01 0.12  
Year to date precipitation 4.67 6.41  
Sea Level Pressure  
Sea Level Pressure 29.93 in    
Wind  
Wind Speed 7 mph (SSE)    
Max Wind Speed 20 mph    
Max Gust Speed 23 mph    
T = Trace of Precipitation, MM = Missing Value Source: NWS Daily Summary

Daily Weather History Graph

Daily Weather History Graph

Search for Another Location

Airport or City:

Astronomy

Sep. 06, 2012 Rise Set
Actual Time 6:17 AM PDT 7:06 PM PDT
Civil Twilight 5:49 AM PDT 7:33 PM PDT
Nautical Twilight 5:17 AM PDT 8:05 PM PDT
Astronomical Twilight 4:44 AM PDT 8:38 PM PDT
Moon 10:21 PM PDT (9/6) 12:18 PM PDT (9/6)
Length of Visible Light 13h 43m
Length of Day
12h 48m
Waning Gibbous, 66% of the Moon is Illuminated
Sep 6
Waning Gibbous
Sep 8
Last Quarter
Sep 15
New
Sep 22
First Quarter
Sep 29
Full

Hourly Weather History & Observations

Time (PDT) Temp. Dew Point Humidity Pressure Visibility Wind Dir Wind Speed Gust Speed Precip Events Conditions
12:53 AM 62.1 °F 32.0 °F 32% 29.88 in - SSE 5.8 mph - N/A   Unknown
1:53 AM 57.9 °F 34.0 °F 41% 29.88 in - South 9.2 mph - N/A   Unknown
2:53 AM 53.1 °F 34.0 °F 48% 29.89 in - SSW 4.6 mph - N/A   Unknown
3:53 AM 51.1 °F 36.0 °F 56% 29.90 in - SSW 8.1 mph - N/A   Unknown
4:53 AM 51.1 °F 37.0 °F 59% 29.89 in - South 5.8 mph - N/A   Unknown
5:53 AM 53.1 °F 37.9 °F 57% 29.90 in - South 5.8 mph - N/A   Unknown
6:53 AM 57.0 °F 37.9 °F 49% 29.90 in - South 6.9 mph - N/A   Unknown
7:53 AM 60.1 °F 39.9 °F 47% 29.92 in - Calm Calm - N/A   Unknown
8:53 AM 69.1 °F 39.9 °F 35% 29.92 in - East 3.5 mph - N/A   Unknown
9:53 AM 73.0 °F 43.0 °F 34% 29.92 in - NNE 8.1 mph - N/A   Unknown
10:53 AM 75.0 °F 34.0 °F 22% 29.93 in - NNE 6.9 mph - N/A   Unknown
11:53 AM 80.1 °F 30.9 °F 17% 29.92 in - NE 12.7 mph - N/A   Unknown
12:53 PM 77.0 °F 30.9 °F 19% 29.92 in - NNE 10.4 mph - N/A   Unknown
1:25 PM 79.0 °F 32.0 °F 18% 30.16 in - North 9.2 mph - N/A   Unknown
1:53 PM 80.1 °F 33.1 °F 18% 29.91 in - NNE 12.7 mph 18.4 mph N/A   Unknown
2:53 PM 80.1 °F 34.0 °F 19% 29.91 in - Variable 4.6 mph 17.3 mph N/A   Unknown
3:53 PM 81.0 °F 34.0 °F 18% 29.90 in - North 18.4 mph - N/A   Unknown
4:53 PM 82.0 °F 34.0 °F 18% 29.90 in - West 10.4 mph - N/A   Unknown
5:53 PM 79.0 °F 32.0 °F 18% 29.91 in - West 6.9 mph - N/A   Unknown
6:53 PM 75.0 °F 32.0 °F 21% 29.91 in - NW 6.9 mph - N/A   Unknown
7:53 PM 70.0 °F 36.0 °F 29% 29.94 in - NNE 4.6 mph - N/A   Unknown
8:53 PM 68.0 °F 37.0 °F 32% 29.95 in - East 3.5 mph - N/A   Unknown
9:53 PM 61.0 °F 39.9 °F 46% 29.97 in - SSW 6.9 mph - N/A   Unknown
10:53 PM 63.0 °F 39.9 °F 43% 29.99 in - SW 4.6 mph - N/A   Unknown
11:53 PM 68.0 °F 39.9 °F 36% 29.97 in - South 8.1 mph - N/A   Unknown